�������l�o���
Date,Time,MP-1(��Sv/h),MP-2(��Sv/h),MP-3(��Sv/h),MP-4(��Sv/h),MP-5(��Sv/h),MP-6(��Sv/h),MP-7(��Sv/h),MP-8(��Sv/h),����,����(m/s),���J
2020/07/04,00:00,0.677,0.969,0.618,1.169,0.844,0.399,0.680,0.637,��쓌,4.0,�L
2020/07/04,00:10,0.676,0.966,0.621,1.171,0.843,0.397,0.681,0.637,��쓌,4.3,�L
2020/07/04,00:20,0.675,0.966,0.620,1.168,0.843,0.398,0.681,0.638,��쓌,4.4,�L
2020/07/04,00:30,0.676,0.965,0.621,1.167,0.843,0.398,0.682,0.636,��쓌,4.2,�L
2020/07/04,00:40,0.674,0.961,0.618,1.167,0.842,0.397,0.679,0.635,��쓌,5.1,�L
2020/07/04,00:50,0.675,0.961,0.617,1.166,0.840,0.397,0.678,0.635,��,4.0,�L
2020/07/04,01:00,0.672,0.959,0.618,1.167,0.841,0.398,0.678,0.636,��,4.6,�L
2020/07/04,01:10,0.671,0.956,0.616,1.166,0.838,0.396,0.676,0.636,��,5.1,�L
2020/07/04,01:20,0.670,0.955,0.616,1.164,0.834,0.396,0.675,0.635,��,4.6,�L
2020/07/04,01:30,0.669,0.952,0.613,1.162,0.833,0.396,0.673,0.633,��,3.7,�L
2020/07/04,01:40,0.666,0.948,0.611,1.159,0.829,0.395,0.673,0.631,��,3.6,�L
2020/07/04,01:50,0.663,0.944,0.610,1.157,0.827,0.393,0.672,0.631,��,3.4,�L
2020/07/04,02:00,0.664,0.939,0.608,1.151,0.822,0.391,0.671,0.629,��쓌,3.2,�L
2020/07/04,02:10,0.659,0.937,0.607,1.148,0.821,0.392,0.671,0.629,��,4.1,�L
2020/07/04,02:20,0.656,0.933,0.605,1.142,0.818,0.392,0.669,0.627,��,2.6,�L
2020/07/04,02:30,0.655,0.928,0.604,1.139,0.813,0.389,0.667,0.626,��,2.9,�L
2020/07/04,02:40,0.655,0.924,0.602,1.135,0.812,0.389,0.665,0.625,��쓌,2.3,�L
2020/07/04,02:50,0.652,0.924,0.602,1.133,0.813,0.389,0.664,0.624,��쓌,2.5,�L
2020/07/04,03:00,0.652,0.924,0.600,1.128,0.811,0.388,0.664,0.624,��쓌,2.3,�L
2020/07/04,03:10,0.652,0.921,0.601,1.127,0.810,0.389,0.664,0.623,��,2.0,�L
2020/07/04,03:20,0.651,0.921,0.601,1.125,0.807,0.390,0.664,0.624,��쓌,1.7,�L
2020/07/04,03:30,0.653,0.921,0.601,1.123,0.809,0.388,0.663,0.624,��쓌,1.4,�L
2020/07/04,03:40,0.650,0.920,0.601,1.121,0.806,0.388,0.663,0.623,�쓌,1.2,�L
2020/07/04,03:50,0.650,0.919,0.599,1.122,0.803,0.388,0.663,0.622,-,CALM,�L
2020/07/04,04:00,0.648,0.916,0.597,1.118,0.801,0.386,0.662,0.622,��쐼,0.9,�L
2020/07/04,04:10,0.650,0.910,0.596,1.113,0.800,0.386,0.660,0.619,�쐼,1.5,�L
2020/07/04,04:20,0.648,0.912,0.598,1.114,0.799,0.385,0.659,0.621,���k��,0.6,�L
2020/07/04,04:30,0.648,0.912,0.596,1.111,0.798,0.386,0.659,0.619,��,1.2,�L
2020/07/04,04:40,0.646,0.908,0.596,1.108,0.796,0.386,0.658,0.619,�k��,1.7,�L
2020/07/04,04:50,0.645,0.907,0.596,1.107,0.796,0.386,0.658,0.620,���k��,2.0,�L
2020/07/04,05:00,0.644,0.903,0.595,1.105,0.793,0.386,0.658,0.619,�k��,2.2,�L
2020/07/04,05:10,0.645,0.904,0.593,1.104,0.793,0.385,0.657,0.619,�k��,3.7,�L
2020/07/04,05:20,0.643,0.903,0.592,1.100,0.790,0.386,0.654,0.618,�k�k��,3.5,�L
2020/07/04,05:30,0.644,0.900,0.593,1.101,0.793,0.386,0.656,0.618,-,CALM,�L
2020/07/04,05:40,0.643,0.897,0.594,1.100,0.787,0.387,0.652,0.617,-,CALM,�L
2020/07/04,05:50,0.642,0.895,0.591,1.092,0.784,0.385,0.651,0.613,-,CALM,�L
2020/07/04,06:00,0.645,0.895,0.593,1.097,0.783,0.387,0.654,0.616,-,CALM,�L
2020/07/04,06:10,0.646,0.898,0.594,1.094,0.783,0.388,0.652,0.614,-,CALM,�L
2020/07/04,06:20,0.646,0.896,0.594,1.094,0.782,0.387,0.651,0.615,-,CALM,�L
2020/07/04,06:30,0.645,0.896,0.594,1.093,0.778,0.387,0.652,0.614,-,CALM,�L
2020/07/04,06:40,0.643,0.894,0.597,1.088,0.775,0.387,0.650,0.613,�k��,6.3,�L
2020/07/04,06:50,0.643,0.891,0.593,1.088,0.775,0.388,0.651,0.615,��,4.4,�L
2020/07/04,07:00,0.643,0.890,0.593,1.088,0.772,0.388,0.652,0.614,�쓌,6.5,�L
2020/07/04,07:10,0.646,0.894,0.595,1.086,0.774,0.390,0.652,0.614,��,4.2,�L
2020/07/04,07:20,0.649,0.896,0.595,1.087,0.775,0.388,0.651,0.616,���k��,3.9,�L
2020/07/04,07:30,0.648,0.895,0.594,1.089,0.773,0.388,0.651,0.615,���k��,3.6,�L
2020/07/04,07:40,0.647,0.897,0.594,1.090,0.772,0.387,0.651,0.615,�k��,4.5,�L
2020/07/04,07:50,0.646,0.897,0.593,1.091,0.773,0.388,0.651,0.615,���k��,2.8,�L
2020/07/04,08:00,0.647,0.896,0.593,1.090,0.770,0.389,0.651,0.617,�k��,4.6,�L
2020/07/04,08:10,0.648,0.898,0.594,1.090,0.771,0.389,0.652,0.616,�k�k��,5.2,�L
2020/07/04,08:20,0.651,0.898,0.595,1.094,0.772,0.388,0.652,0.618,�k�k��,5.5,�L
2020/07/04,08:30,0.650,0.900,0.594,1.097,0.775,0.390,0.654,0.616,�k�k��,6.9,�L
2020/07/04,08:40,0.651,0.900,0.594,1.097,0.774,0.389,0.655,0.618,�k�k��,6.5,�L
2020/07/04,08:50,0.650,0.903,0.595,1.099,0.776,0.391,0.654,0.619,�k,6.2,�L
2020/07/04,09:00,0.654,0.901,0.595,1.099,0.776,0.390,0.654,0.620,�k,6.2,�L
2020/07/04,09:10,0.652,0.905,0.597,1.100,0.778,0.390,0.655,0.619,�k,5.8,�L
2020/07/04,09:20,0.651,0.902,0.596,1.100,0.776,0.389,0.658,0.620,�k,7.1,�L
2020/07/04,09:30,0.651,0.901,0.596,1.103,0.778,0.387,0.656,0.619,�k,5.1,�L
2020/07/04,09:40,0.650,0.902,0.595,1.104,0.778,0.387,0.657,0.621,�k,5.9,�L
2020/07/04,09:50,0.652,0.903,0.595,1.104,0.779,0.388,0.658,0.619,�k�k��,5.7,�L
2020/07/04,10:00,0.653,0.905,0.596,1.105,0.779,0.387,0.659,0.619,�k�k��,5.0,�L
2020/07/04,10:10,0.654,0.905,0.596,1.109,0.776,0.385,0.657,0.621,�k�k��,6.4,�L
2020/07/04,10:20,0.650,0.904,0.594,1.111,0.777,0.387,0.658,0.622,�k�k��,6.4,�L
2020/07/04,10:30,0.653,0.908,0.595,1.111,0.779,0.385,0.657,0.621,�k�k��,7.1,�L
2020/07/04,10:40,0.652,0.908,0.595,1.111,0.779,0.386,0.658,0.622,�k�k��,6.6,�L
2020/07/04,10:50,0.652,0.908,0.596,1.111,0.780,0.387,0.660,0.621,�k��,6.4,�L
2020/07/04,11:00,0.650,0.907,0.594,1.112,0.779,0.385,0.660,0.621,�k�k��,6.2,�L
2020/07/04,11:10,0.650,0.903,0.594,1.109,0.778,0.384,0.657,0.621,�k�k��,6.3,�L
2020/07/04,11:20,0.651,0.907,0.595,1.109,0.778,0.385,0.657,0.620,�k�k��,6.2,�L
2020/07/04,11:30,0.652,0.908,0.596,1.112,0.780,0.383,0.656,0.621,�k�k��,6.7,�L
2020/07/04,11:40,0.652,0.909,0.595,1.110,0.782,0.385,0.658,0.621,�k�k��,6.3,��
2020/07/04,11:50,0.652,0.911,0.596,1.113,0.782,0.385,0.659,0.623,�k�k��,7.0,��
2020/07/04,12:00,0.653,0.915,0.595,1.114,0.780,0.384,0.660,0.622,�k�k��,6.8,��
2020/07/04,12:10,0.652,0.915,0.596,1.117,0.784,0.385,0.658,0.622,�k�k��,5.7,��
2020/07/04,12:20,0.653,0.916,0.597,1.118,0.781,0.386,0.657,0.624,�k�k��,5.2,��
2020/07/04,12:30,0.651,0.917,0.596,1.116,0.784,0.385,0.659,0.623,�k�k��,5.7,��
2020/07/04,12:40,0.653,0.915,0.596,1.117,0.784,0.384,0.660,0.622,�k�k��,5.7,��
2020/07/04,12:50,0.652,0.916,0.597,1.118,0.785,0.385,0.659,0.623,�k,5.0,��
2020/07/04,13:00,0.651,0.917,0.596,1.121,0.786,0.383,0.659,0.624,�k,4.6,��
2020/07/04,13:10,0.653,0.920,0.594,1.120,0.785,0.384,0.659,0.624,�k,5.3,�L
2020/07/04,13:20,0.654,0.919,0.597,1.121,0.787,0.384,0.660,0.623,�k�k��,4.8,�L
2020/07/04,13:30,0.653,0.915,0.597,1.120,0.786,0.384,0.659,0.624,�k,5.8,�L
2020/07/04,13:40,0.652,0.917,0.598,1.123,0.788,0.384,0.660,0.623,�k�k��,4.3,�L
2020/07/04,13:50,0.652,0.918,0.598,1.123,0.788,0.384,0.659,0.622,�k,5.5,�L
2020/07/04,14:00,0.652,0.920,0.598,1.121,0.788,0.384,0.660,0.623,�k�k��,4.7,�L
2020/07/04,14:10,0.653,0.921,0.599,1.123,0.788,0.384,0.662,0.624,�k,5.1,�L
2020/07/04,14:20,0.653,0.919,0.599,1.124,0.788,0.386,0.661,0.623,�k,5.3,�L
2020/07/04,14:30,0.654,0.919,0.599,1.124,0.790,0.385,0.662,0.625,�k,6.1,�L
2020/07/04,14:40,0.653,0.917,0.599,1.123,0.791,0.386,0.663,0.623,�k,5.5,��
2020/07/04,14:50,0.653,0.920,0.600,1.126,0.791,0.386,0.660,0.623,�k�k��,4.4,��
2020/07/04,15:00,0.652,0.922,0.601,1.126,0.790,0.386,0.661,0.624,�k,4.4,��
2020/07/04,15:10,0.654,0.921,0.601,1.124,0.790,0.386,0.659,0.623,�k�k��,4.2,��
2020/07/04,15:20,0.652,0.924,0.601,1.126,0.789,0.386,0.659,0.626,�k�k��,4.4,��
2020/07/04,15:30,0.654,0.926,0.601,1.127,0.793,0.386,0.662,0.626,�k�k��,4.8,��
2020/07/04,15:40,0.655,0.923,0.602,1.127,0.790,0.386,0.661,0.626,�k�k��,3.9,��
2020/07/04,15:50,0.654,0.927,0.603,1.125,0.790,0.385,0.660,0.624,�k�k��,3.4,�L
2020/07/04,16:00,0.653,0.925,0.602,1.128,0.793,0.385,0.661,0.624,�k�k��,3.2,�L
2020/07/04,16:10,0.654,0.926,0.602,1.127,0.793,0.387,0.661,0.626,�k�k��,3.3,�L
2020/07/04,16:20,0.652,0.922,0.601,1.128,0.793,0.385,0.662,0.626,�k�k��,4.4,�L
2020/07/04,16:30,0.654,0.926,0.601,1.126,0.793,0.387,0.661,0.626,�k�k��,4.3,�L
2020/07/04,16:40,0.652,0.925,0.603,1.129,0.792,0.386,0.662,0.625,�k�k��,4.1,�L
2020/07/04,16:50,0.655,0.925,0.601,1.129,0.792,0.386,0.662,0.624,�k�k��,5.1,�L
2020/07/04,17:00,0.653,0.925,0.603,1.127,0.792,0.385,0.661,0.624,�k�k��,4.7,�L
2020/07/04,17:10,0.651,0.924,0.603,1.126,0.792,0.386,0.661,0.625,�k�k��,4.2,�L
2020/07/04,17:20,0.653,0.922,0.601,1.128,0.793,0.388,0.661,0.625,�k�k��,4.2,�L
2020/07/04,17:30,0.653,0.924,0.600,1.127,0.792,0.388,0.662,0.624,�k�k��,5.4,�L
2020/07/04,17:40,0.651,0.923,0.600,1.126,0.791,0.388,0.661,0.624,�k�k��,6.1,�L
2020/07/04,17:50,0.653,0.922,0.601,1.125,0.792,0.387,0.663,0.625,�k�k��,5.6,�L
2020/07/04,18:00,0.652,0.921,0.600,1.126,0.792,0.387,0.662,0.623,�k�k��,5.1,�L
2020/07/04,18:10,0.653,0.922,0.599,1.126,0.789,0.387,0.661,0.623,�k��,3.8,�L
2020/07/04,18:20,0.652,0.921,0.599,1.127,0.791,0.387,0.662,0.623,�k��,2.6,��
2020/07/04,18:30,0.652,0.922,0.600,1.125,0.792,0.387,0.662,0.625,�k��,2.0,�L
2020/07/04,18:40,0.653,0.921,0.600,1.125,0.791,0.386,0.660,0.624,��,1.5,��
2020/07/04,18:50,0.653,0.923,0.599,1.127,0.789,0.386,0.662,0.626,�k��,2.0,�L
2020/07/04,19:00,0.651,0.924,0.600,1.126,0.793,0.385,0.663,0.627,���k��,2.3,�L
2020/07/04,19:10,0.654,0.925,0.599,1.126,0.792,0.387,0.662,0.625,���k��,2.6,�L
2020/07/04,19:20,0.652,0.925,0.599,1.125,0.792,0.385,0.664,0.624,���k��,2.6,��
2020/07/04,19:30,0.651,0.924,0.599,1.128,0.792,0.385,0.664,0.626,���k��,2.6,��
2020/07/04,19:40,0.652,0.927,0.599,1.127,0.794,0.385,0.662,0.626,���k��,2.5,��
2020/07/04,19:50,0.652,0.927,0.600,1.124,0.790,0.386,0.662,0.624,��,1.7,��
2020/07/04,20:00,0.651,0.925,0.600,1.125,0.793,0.385,0.661,0.624,�쓌,2.0,��
2020/07/04,20:10,0.652,0.924,0.600,1.126,0.792,0.386,0.663,0.626,���쓌,1.2,��
2020/07/04,20:20,0.652,0.924,0.599,1.126,0.792,0.386,0.663,0.626,�쓌,1.5,��
2020/07/04,20:30,0.652,0.924,0.600,1.127,0.793,0.386,0.662,0.627,���쓌,1.2,��
2020/07/04,20:40,0.653,0.926,0.600,1.127,0.795,0.387,0.662,0.625,���쓌,0.6,�L
2020/07/04,20:50,0.655,0.926,0.600,1.126,0.794,0.386,0.663,0.626,-,CALM,�L
2020/07/04,21:00,0.654,0.926,0.599,1.128,0.793,0.387,0.662,0.625,�k��,0.6,�L
2020/07/04,21:10,0.653,0.925,0.602,1.124,0.795,0.387,0.663,0.626,�k�k��,0.9,�L
2020/07/04,21:20,0.654,0.924,0.600,1.127,0.794,0.386,0.663,0.624,�k�k��,1.4,�L
2020/07/04,21:30,0.655,0.924,0.599,1.126,0.795,0.388,0.664,0.627,�k�k��,1.7,�L
2020/07/04,21:40,0.653,0.925,0.600,1.127,0.795,0.389,0.663,0.626,�k�k��,2.3,�L
2020/07/04,21:50,0.655,0.926,0.598,1.129,0.795,0.388,0.664,0.627,�k,1.2,�L
2020/07/04,22:00,0.650,0.919,0.598,1.117,0.788,0.388,0.660,0.623,�k�k��,3.3,�L
2020/07/04,22:10,0.646,0.913,0.596,1.115,0.785,0.385,0.657,0.620,���k��,1.9,�L
2020/07/04,22:20,0.647,0.914,0.596,1.114,0.785,0.385,0.655,0.619,��,2.0,�L
2020/07/04,22:30,0.646,0.914,0.596,1.117,0.786,0.384,0.656,0.620,���쓌,1.7,�L
2020/07/04,22:40,0.648,0.914,0.595,1.115,0.786,0.384,0.656,0.620,���쓌,1.2,��
2020/07/04,22:50,0.647,0.915,0.595,1.114,0.787,0.383,0.657,0.621,��,1.2,��
2020/07/04,23:00,0.647,0.915,0.598,1.118,0.789,0.385,0.658,0.622,��,0.8,��
2020/07/04,23:10,0.649,0.917,0.598,1.116,0.788,0.386,0.659,0.621,��,1.5,��
2020/07/04,23:20,0.652,0.917,0.598,1.118,0.788,0.386,0.659,0.622,-,CALM,��
2020/07/04,23:30,0.649,0.920,0.598,1.118,0.788,0.387,0.658,0.623,-,CALM,��
2020/07/04,23:40,0.652,0.921,0.598,1.115,0.789,0.385,0.658,0.624,-,CALM,�L
2020/07/04,23:50,0.653,0.918,0.597,1.114,0.790,0.385,0.659,0.621,-,CALM,�L
